Year,Month,Day,Hour,Minute,Value (Times are PST for temperature in C)
2006,07,12,00,00,14.80
2006,07,12,00,01,14.80
2006,07,12,00,02,14.80
2006,07,12,00,03,14.80
2006,07,12,00,04,14.80
2006,07,12,00,05,14.70
2006,07,12,00,06,14.70
2006,07,12,00,07,14.60
2006,07,12,00,08,14.60
2006,07,12,00,09,14.50
2006,07,12,00,10,14.50
2006,07,12,00,11,14.30
2006,07,12,00,12,14.20
2006,07,12,00,13,14.10
2006,07,12,00,14,14.00
2006,07,12,00,15,13.90
2006,07,12,00,16,13.80
2006,07,12,00,17,13.70
2006,07,12,00,18,13.60
2006,07,12,00,19,13.60
2006,07,12,00,20,13.50
2006,07,12,00,21,13.50
2006,07,12,00,22,13.40
2006,07,12,00,23,13.40
2006,07,12,00,24,13.30
2006,07,12,00,25,13.30
2006,07,12,00,26,13.30
2006,07,12,00,27,13.30
2006,07,12,00,28,13.30
2006,07,12,00,29,13.30
2006,07,12,00,30,13.30
2006,07,12,00,31,13.30
2006,07,12,00,32,13.30
2006,07,12,00,33,13.30
2006,07,12,00,34,13.30
2006,07,12,00,35,13.30
2006,07,12,00,36,13.30
2006,07,12,00,37,13.30
2006,07,12,00,38,13.30
2006,07,12,00,39,13.30
2006,07,12,00,40,13.30
2006,07,12,00,41,13.40
2006,07,12,00,42,13.40
2006,07,12,00,43,13.40
2006,07,12,00,44,13.40
2006,07,12,00,45,13.50
2006,07,12,00,46,13.50
2006,07,12,00,47,13.50
2006,07,12,00,48,13.50
2006,07,12,00,49,13.60
2006,07,12,00,50,13.60
2006,07,12,00,51,13.60
2006,07,12,00,52,13.60
2006,07,12,00,53,13.60
2006,07,12,00,54,13.60
2006,07,12,00,55,13.70
2006,07,12,00,56,13.70
2006,07,12,00,57,13.70
2006,07,12,00,58,13.70
2006,07,12,00,59,13.70
2006,07,12,01,00,13.70
2006,07,12,01,01,13.70
2006,07,12,01,02,13.70
2006,07,12,01,03,13.70
2006,07,12,01,04,13.70
2006,07,12,01,05,13.70
2006,07,12,01,06,13.70
2006,07,12,01,07,13.80
2006,07,12,01,08,13.80
2006,07,12,01,09,13.90
2006,07,12,01,10,13.90
2006,07,12,01,11,13.90
2006,07,12,01,12,13.90
2006,07,12,01,13,13.90
2006,07,12,01,14,13.90
2006,07,12,01,15,13.90
2006,07,12,01,16,14.00
2006,07,12,01,17,14.00
2006,07,12,01,18,14.00
2006,07,12,01,19,14.00
2006,07,12,01,20,14.00
2006,07,12,01,21,14.00
2006,07,12,01,22,14.00
2006,07,12,01,23,14.00
2006,07,12,01,24,14.00
2006,07,12,01,25,14.10
2006,07,12,01,26,14.10
2006,07,12,01,27,14.10
2006,07,12,01,28,14.00
2006,07,12,01,29,14.00
2006,07,12,01,30,13.90
2006,07,12,01,31,13.90
2006,07,12,01,32,13.80
2006,07,12,01,33,13.70
2006,07,12,01,34,13.70
2006,07,12,01,35,13.70
2006,07,12,01,36,13.60
2006,07,12,01,37,13.60
2006,07,12,01,38,13.60
2006,07,12,01,39,13.50
2006,07,12,01,40,13.50
2006,07,12,01,41,13.50
2006,07,12,01,42,13.50
2006,07,12,01,43,13.40
2006,07,12,01,44,13.40
2006,07,12,01,45,13.40
2006,07,12,01,46,13.40
2006,07,12,01,47,13.40
2006,07,12,01,48,13.40
2006,07,12,01,49,13.30
2006,07,12,01,50,13.30
2006,07,12,01,51,13.30
2006,07,12,01,52,13.30
2006,07,12,01,53,13.30
2006,07,12,01,54,13.30
2006,07,12,01,55,13.30
2006,07,12,01,56,13.30
2006,07,12,01,57,13.30
2006,07,12,01,58,13.30
2006,07,12,01,59,13.30
2006,07,12,02,00,13.30
2006,07,12,02,01,13.30
2006,07,12,02,02,13.30
2006,07,12,02,03,13.30
2006,07,12,02,04,13.30
2006,07,12,02,05,13.30
2006,07,12,02,06,13.30
2006,07,12,02,07,13.30
2006,07,12,02,08,13.30
2006,07,12,02,09,13.30
2006,07,12,02,10,13.30
2006,07,12,02,11,13.30
2006,07,12,02,12,13.30
2006,07,12,02,13,13.30
2006,07,12,02,14,13.30
2006,07,12,02,15,13.30
2006,07,12,02,16,13.30
2006,07,12,02,17,13.30
2006,07,12,02,18,13.30
2006,07,12,02,19,13.30
2006,07,12,02,20,13.30
2006,07,12,02,21,13.30
2006,07,12,02,22,13.30
2006,07,12,02,23,13.30
2006,07,12,02,24,13.30
2006,07,12,02,25,13.30
2006,07,12,02,26,13.30
2006,07,12,02,27,13.30
2006,07,12,02,28,13.30
2006,07,12,02,29,13.30
2006,07,12,02,30,13.30
2006,07,12,02,31,13.30
2006,07,12,02,32,13.30
2006,07,12,02,33,13.30
2006,07,12,02,34,13.30
2006,07,12,02,35,13.30
2006,07,12,02,36,13.30
2006,07,12,02,37,13.30
2006,07,12,02,38,13.30
2006,07,12,02,39,13.30
2006,07,12,02,40,13.30
2006,07,12,02,41,13.20
2006,07,12,02,42,13.20
2006,07,12,02,43,13.20
2006,07,12,02,44,13.20
2006,07,12,02,45,13.20
2006,07,12,02,46,13.10
2006,07,12,02,47,13.10
2006,07,12,02,48,13.10
2006,07,12,02,49,13.10
2006,07,12,02,50,13.10
2006,07,12,02,51,13.10
2006,07,12,02,52,13.00
2006,07,12,02,53,13.00
2006,07,12,02,54,13.00
2006,07,12,02,55,12.90
2006,07,12,02,56,12.90
2006,07,12,02,57,12.90
2006,07,12,02,58,12.90
2006,07,12,02,59,12.90
2006,07,12,03,00,12.80
2006,07,12,03,01,12.80
2006,07,12,03,02,12.80
2006,07,12,03,03,12.80
2006,07,12,03,04,12.80
2006,07,12,03,05,12.80
2006,07,12,03,06,12.80
2006,07,12,03,07,12.80
2006,07,12,03,08,12.80
2006,07,12,03,09,12.80
2006,07,12,03,10,12.80
2006,07,12,03,11,12.80
2006,07,12,03,12,12.80
2006,07,12,03,13,12.80
2006,07,12,03,14,12.80
2006,07,12,03,15,12.80
2006,07,12,03,16,12.80
2006,07,12,03,17,12.80
2006,07,12,03,18,12.80
2006,07,12,03,19,12.80
2006,07,12,03,20,12.90
2006,07,12,03,21,12.90
2006,07,12,03,22,12.90
2006,07,12,03,23,12.90
2006,07,12,03,24,12.90
2006,07,12,03,25,12.90
2006,07,12,03,26,12.90
2006,07,12,03,27,12.90
2006,07,12,03,28,13.00
2006,07,12,03,29,13.00
2006,07,12,03,30,13.00
2006,07,12,03,31,13.00
2006,07,12,03,32,13.00
2006,07,12,03,33,13.00
2006,07,12,03,34,13.00
2006,07,12,03,35,13.00
2006,07,12,03,36,13.00
2006,07,12,03,37,13.00
2006,07,12,03,38,13.00
2006,07,12,03,39,13.10
2006,07,12,03,40,13.10
2006,07,12,03,41,13.10
2006,07,12,03,42,13.10
2006,07,12,03,43,13.10
2006,07,12,03,44,13.10
2006,07,12,03,45,13.10
2006,07,12,03,46,13.10
2006,07,12,03,47,13.10
2006,07,12,03,48,13.10
2006,07,12,03,49,13.10
2006,07,12,03,50,13.10
2006,07,12,03,51,13.10
2006,07,12,03,52,13.10
2006,07,12,03,53,13.10
2006,07,12,03,54,13.20
2006,07,12,03,55,13.20
2006,07,12,03,56,13.20
2006,07,12,03,57,13.20
2006,07,12,03,58,13.20
2006,07,12,03,59,13.20
2006,07,12,04,00,13.20
2006,07,12,04,01,13.20
2006,07,12,04,02,13.20
2006,07,12,04,03,13.20
2006,07,12,04,04,13.20
2006,07,12,04,05,13.10
2006,07,12,04,06,13.10
2006,07,12,04,07,13.10
2006,07,12,04,08,13.10
2006,07,12,04,09,13.00
2006,07,12,04,10,13.00
2006,07,12,04,11,13.00
2006,07,12,04,12,13.00
2006,07,12,04,13,13.00
2006,07,12,04,14,13.00
2006,07,12,04,15,13.00
2006,07,12,04,16,13.00
2006,07,12,04,17,13.00
2006,07,12,04,18,13.00
2006,07,12,04,19,13.00
2006,07,12,04,20,13.00
2006,07,12,04,21,13.00
2006,07,12,04,22,13.00
2006,07,12,04,23,13.00
2006,07,12,04,24,13.00
2006,07,12,04,25,13.10
2006,07,12,04,26,13.10
2006,07,12,04,27,13.10
2006,07,12,04,28,13.10
2006,07,12,04,29,13.10
2006,07,12,04,30,13.10
2006,07,12,04,31,13.10
2006,07,12,04,32,13.10
2006,07,12,04,33,13.10
2006,07,12,04,34,13.10
2006,07,12,04,35,13.10
2006,07,12,04,36,13.20
2006,07,12,04,37,13.20
2006,07,12,04,38,13.20
2006,07,12,04,39,13.20
2006,07,12,04,40,13.10
2006,07,12,04,41,13.00
2006,07,12,04,42,12.90
2006,07,12,04,43,12.80
2006,07,12,04,44,12.80
2006,07,12,04,45,12.80
2006,07,12,04,46,12.80
2006,07,12,04,47,12.80
2006,07,12,04,48,12.80
2006,07,12,04,49,12.70
2006,07,12,04,50,12.70
2006,07,12,04,51,12.70
2006,07,12,04,52,12.60
2006,07,12,04,53,12.60
2006,07,12,04,54,12.50
2006,07,12,04,55,12.50
2006,07,12,04,56,12.40
2006,07,12,04,57,12.40
2006,07,12,04,58,12.30
2006,07,12,04,59,12.30
2006,07,12,05,00,12.30
2006,07,12,05,01,12.30
2006,07,12,05,02,12.30
2006,07,12,05,03,12.20
2006,07,12,05,04,12.20
2006,07,12,05,05,12.20
2006,07,12,05,06,12.20
2006,07,12,05,07,12.20
2006,07,12,05,08,12.20
2006,07,12,05,09,12.20
2006,07,12,05,10,12.20
2006,07,12,05,11,12.20
2006,07,12,05,12,12.20
2006,07,12,05,13,12.20
2006,07,12,05,14,12.10
2006,07,12,05,15,12.10
2006,07,12,05,16,12.10
2006,07,12,05,17,12.10
2006,07,12,05,18,12.10
2006,07,12,05,19,12.10
2006,07,12,05,20,12.10
2006,07,12,05,21,12.10
2006,07,12,05,22,12.00
2006,07,12,05,23,12.00
2006,07,12,05,24,12.00
2006,07,12,05,25,11.90
2006,07,12,05,26,11.90
2006,07,12,05,27,11.90
2006,07,12,05,28,11.80
2006,07,12,05,29,11.80
2006,07,12,05,30,11.80
2006,07,12,05,31,11.80
2006,07,12,05,32,11.80
2006,07,12,05,33,11.80
2006,07,12,05,34,11.80
2006,07,12,05,35,11.80
2006,07,12,05,36,11.80
2006,07,12,05,37,11.80
2006,07,12,05,38,11.80
2006,07,12,05,39,11.80
2006,07,12,05,40,11.80
2006,07,12,05,41,11.80
2006,07,12,05,42,11.80
2006,07,12,05,43,11.80
2006,07,12,05,44,11.80
2006,07,12,05,45,11.80
2006,07,12,05,46,11.80
2006,07,12,05,47,11.80
2006,07,12,05,48,11.80
2006,07,12,05,49,11.80
2006,07,12,05,50,11.80
2006,07,12,05,51,11.80
2006,07,12,05,52,11.90
2006,07,12,05,53,11.90
2006,07,12,05,54,11.90
2006,07,12,05,55,11.90
2006,07,12,05,56,11.90
2006,07,12,05,57,11.90
2006,07,12,05,58,11.90
2006,07,12,05,59,11.90
2006,07,12,06,00,12.00
2006,07,12,06,01,12.00
2006,07,12,06,02,12.00
2006,07,12,06,03,12.00
2006,07,12,06,04,12.00
2006,07,12,06,05,12.00
2006,07,12,06,06,12.00
2006,07,12,06,07,11.90
2006,07,12,06,08,11.90
2006,07,12,06,09,11.90
2006,07,12,06,10,11.90
2006,07,12,06,11,11.90
2006,07,12,06,12,11.90
2006,07,12,06,13,11.90
2006,07,12,06,14,11.90
2006,07,12,06,15,11.90
2006,07,12,06,16,11.90
2006,07,12,06,17,11.90
2006,07,12,06,18,11.90
2006,07,12,06,19,11.90
2006,07,12,06,20,12.00
2006,07,12,06,21,12.00
2006,07,12,06,22,12.00
2006,07,12,06,23,12.00
2006,07,12,06,24,11.90
2006,07,12,06,25,12.00
2006,07,12,06,26,12.00
2006,07,12,06,27,12.00
2006,07,12,06,28,12.00
2006,07,12,06,29,12.00
2006,07,12,06,30,12.00
2006,07,12,06,31,12.00
2006,07,12,06,32,12.00
2006,07,12,06,33,12.00
2006,07,12,06,34,12.10
2006,07,12,06,35,12.10
2006,07,12,06,36,12.10
2006,07,12,06,37,12.10
2006,07,12,06,38,12.10
2006,07,12,06,39,12.10
2006,07,12,06,40,12.10
2006,07,12,06,41,12.20
2006,07,12,06,42,12.20
2006,07,12,06,43,12.20
2006,07,12,06,44,12.20
2006,07,12,06,45,12.20
2006,07,12,06,46,12.20
2006,07,12,06,47,12.20
2006,07,12,06,48,12.20
2006,07,12,06,49,12.20
2006,07,12,06,50,12.20
2006,07,12,06,51,12.20
2006,07,12,06,52,12.20
2006,07,12,06,53,12.20
2006,07,12,06,54,12.20
2006,07,12,06,55,12.20
2006,07,12,06,56,12.30
2006,07,12,06,57,12.30
2006,07,12,06,58,12.30
2006,07,12,06,59,12.30
2006,07,12,07,00,12.30
2006,07,12,07,01,12.30
2006,07,12,07,02,12.30
2006,07,12,07,03,12.30
2006,07,12,07,04,12.30
2006,07,12,07,05,12.30
2006,07,12,07,06,12.30
2006,07,12,07,07,12.30
2006,07,12,07,08,12.30
2006,07,12,07,09,12.30
2006,07,12,07,10,12.30
2006,07,12,07,11,12.30
2006,07,12,07,12,12.30
2006,07,12,07,13,12.40
2006,07,12,07,14,12.40
2006,07,12,07,15,12.40
2006,07,12,07,16,12.40
2006,07,12,07,17,12.40
2006,07,12,07,18,12.40
2006,07,12,07,19,12.30
2006,07,12,07,20,12.30
2006,07,12,07,21,12.30
2006,07,12,07,22,12.30
2006,07,12,07,23,12.30
2006,07,12,07,24,12.30
2006,07,12,07,25,12.30
2006,07,12,07,26,12.30
2006,07,12,07,27,12.30
2006,07,12,07,28,12.30
2006,07,12,07,29,12.30
2006,07,12,07,30,12.30
2006,07,12,07,31,12.30
2006,07,12,07,32,12.20
2006,07,12,07,33,12.20
2006,07,12,07,34,12.30
2006,07,12,07,35,12.30
2006,07,12,07,36,12.30
2006,07,12,07,37,12.30
2006,07,12,07,38,12.30
2006,07,12,07,39,12.30
2006,07,12,07,40,12.30
2006,07,12,07,41,12.30
2006,07,12,07,42,12.30
2006,07,12,07,43,12.30
2006,07,12,07,44,12.30
2006,07,12,07,45,12.30
2006,07,12,07,46,12.30
2006,07,12,07,47,12.30
2006,07,12,07,48,12.30
2006,07,12,07,49,12.30
2006,07,12,07,50,12.30
2006,07,12,07,51,12.30
2006,07,12,07,52,12.30
2006,07,12,07,53,12.30
2006,07,12,07,54,12.30
2006,07,12,07,55,12.30
2006,07,12,07,56,12.30
2006,07,12,07,57,12.30
2006,07,12,07,58,12.30
2006,07,12,07,59,12.30
2006,07,12,08,00,12.40
2006,07,12,08,01,12.40
2006,07,12,08,02,12.40
2006,07,12,08,03,12.40
2006,07,12,08,04,12.40
2006,07,12,08,05,12.40
2006,07,12,08,06,12.40
2006,07,12,08,07,12.40
2006,07,12,08,08,12.40
2006,07,12,08,09,12.40
2006,07,12,08,10,12.40
2006,07,12,08,11,12.40
2006,07,12,08,12,12.40
2006,07,12,08,13,12.50
2006,07,12,08,14,12.50
2006,07,12,08,15,12.40
2006,07,12,08,16,12.50
2006,07,12,08,17,12.50
2006,07,12,08,18,12.50
2006,07,12,08,19,12.50
2006,07,12,08,20,12.50
2006,07,12,08,21,12.50
2006,07,12,08,22,12.60
2006,07,12,08,23,12.60
2006,07,12,08,24,12.60
2006,07,12,08,25,12.70
2006,07,12,08,26,12.70
2006,07,12,08,27,12.70
2006,07,12,08,28,12.70
2006,07,12,08,29,12.70
2006,07,12,08,30,12.70
2006,07,12,08,31,12.80
2006,07,12,08,32,12.80
2006,07,12,08,33,12.80
2006,07,12,08,34,12.80
2006,07,12,08,35,12.80
2006,07,12,08,36,12.80
2006,07,12,08,37,12.80
2006,07,12,08,38,12.80
2006,07,12,08,39,12.90
2006,07,12,08,40,12.90
2006,07,12,08,41,12.90
2006,07,12,08,42,12.90
2006,07,12,08,43,12.90
2006,07,12,08,44,13.00
2006,07,12,08,45,13.00
2006,07,12,08,46,13.00
2006,07,12,08,47,13.00
2006,07,12,08,48,13.00
2006,07,12,08,49,13.10
2006,07,12,08,50,13.10
2006,07,12,08,51,13.10
2006,07,12,08,52,13.10
2006,07,12,08,53,13.20
2006,07,12,08,54,13.20
2006,07,12,08,55,13.20
2006,07,12,08,56,13.20
2006,07,12,08,57,13.20
2006,07,12,08,58,13.20
2006,07,12,08,59,13.20
2006,07,12,09,00,13.20
2006,07,12,09,01,13.20
2006,07,12,09,02,13.20
2006,07,12,09,03,13.20
2006,07,12,09,04,13.20
2006,07,12,09,05,13.20
2006,07,12,09,06,13.20
2006,07,12,09,07,13.20
2006,07,12,09,08,13.20
2006,07,12,09,09,13.30
2006,07,12,09,10,13.30
2006,07,12,09,11,13.30
2006,07,12,09,12,13.30
2006,07,12,09,13,13.30
2006,07,12,09,14,13.30
2006,07,12,09,15,13.30
2006,07,12,09,16,13.30
2006,07,12,09,17,13.30
2006,07,12,09,18,13.40
2006,07,12,09,19,13.40
2006,07,12,09,20,13.40
2006,07,12,09,21,13.50
2006,07,12,09,22,13.50
2006,07,12,09,23,13.50
2006,07,12,09,24,13.50
2006,07,12,09,25,13.50
2006,07,12,09,26,13.50
2006,07,12,09,27,13.50
2006,07,12,09,28,13.50
2006,07,12,09,29,13.50
2006,07,12,09,30,13.50
2006,07,12,09,31,13.50
2006,07,12,09,32,13.50
2006,07,12,09,33,13.40
2006,07,12,09,34,13.40
2006,07,12,09,35,13.40
2006,07,12,09,36,13.40
2006,07,12,09,37,13.40
2006,07,12,09,38,13.40
2006,07,12,09,39,13.40
2006,07,12,09,40,13.40
2006,07,12,09,41,13.40
2006,07,12,09,42,13.40
2006,07,12,09,43,13.40
2006,07,12,09,44,13.40
2006,07,12,09,45,13.50
2006,07,12,09,46,13.50
2006,07,12,09,47,13.50
2006,07,12,09,48,13.50
2006,07,12,09,49,13.50
2006,07,12,09,50,13.50
2006,07,12,09,51,13.50
2006,07,12,09,52,13.50
2006,07,12,09,53,13.50
2006,07,12,09,54,13.60
2006,07,12,09,55,13.60
2006,07,12,09,56,13.60
2006,07,12,09,57,13.60
2006,07,12,09,58,13.70
2006,07,12,09,59,13.70
2006,07,12,10,00,13.70
2006,07,12,10,01,13.70
2006,07,12,10,02,13.70
2006,07,12,10,03,13.70
2006,07,12,10,04,13.70
2006,07,12,10,05,13.70
2006,07,12,10,06,13.70
2006,07,12,10,07,13.70
2006,07,12,10,08,13.70
2006,07,12,10,09,13.70
2006,07,12,10,10,13.70
2006,07,12,10,11,13.70
2006,07,12,10,12,13.70
2006,07,12,10,13,13.70
2006,07,12,10,14,13.70
2006,07,12,10,15,13.70
2006,07,12,10,16,13.80
2006,07,12,10,17,13.80
2006,07,12,10,18,13.80
2006,07,12,10,19,13.80
2006,07,12,10,20,13.80
2006,07,12,10,21,13.80
2006,07,12,10,22,13.80
2006,07,12,10,23,13.80
2006,07,12,10,24,13.90
2006,07,12,10,25,13.90
2006,07,12,10,26,13.90
2006,07,12,10,27,13.90
2006,07,12,10,28,13.90
2006,07,12,10,29,13.90
2006,07,12,10,30,13.90
2006,07,12,10,31,13.90
2006,07,12,10,32,13.90
2006,07,12,10,33,13.90
2006,07,12,10,34,13.80
2006,07,12,10,35,13.80
2006,07,12,10,36,13.80
2006,07,12,10,37,13.90
2006,07,12,10,38,13.90
2006,07,12,10,39,13.90
2006,07,12,10,40,13.90
2006,07,12,10,41,13.90
2006,07,12,10,42,13.90
2006,07,12,10,43,13.90
2006,07,12,10,44,14.00
2006,07,12,10,45,14.00
2006,07,12,10,46,14.00
2006,07,12,10,47,13.90
2006,07,12,10,48,13.90
2006,07,12,10,49,13.90
2006,07,12,10,50,13.90
2006,07,12,10,51,13.90
2006,07,12,10,52,13.90
2006,07,12,10,53,13.90
2006,07,12,10,54,13.90
2006,07,12,10,55,14.00
2006,07,12,10,56,13.90
2006,07,12,10,57,13.90
2006,07,12,10,58,13.90
2006,07,12,10,59,13.90
2006,07,12,11,00,13.80
2006,07,12,11,01,13.80
2006,07,12,11,02,13.80
2006,07,12,11,03,13.80
2006,07,12,11,04,13.80
2006,07,12,11,05,13.80
2006,07,12,11,06,13.80
2006,07,12,11,07,13.80
2006,07,12,11,08,13.80
2006,07,12,11,09,13.80
2006,07,12,11,10,13.80
2006,07,12,11,11,13.80
2006,07,12,11,12,13.80
2006,07,12,11,13,13.80
2006,07,12,11,14,13.90
2006,07,12,11,15,13.90
2006,07,12,11,16,13.90
2006,07,12,11,17,13.90
2006,07,12,11,18,13.90
2006,07,12,11,19,14.00
2006,07,12,11,20,14.00
2006,07,12,11,21,14.00
2006,07,12,11,22,14.00
2006,07,12,11,23,14.00
2006,07,12,11,24,14.00
2006,07,12,11,25,13.90
2006,07,12,11,26,13.90
2006,07,12,11,27,13.90
2006,07,12,11,28,13.90
2006,07,12,11,29,13.80
2006,07,12,11,30,13.80
2006,07,12,11,31,13.80
2006,07,12,11,32,13.70
2006,07,12,11,33,13.80
2006,07,12,11,34,13.80
2006,07,12,11,35,13.80
2006,07,12,11,36,13.80
2006,07,12,11,37,13.80
2006,07,12,11,38,13.80
2006,07,12,11,39,13.80
2006,07,12,11,40,13.70
2006,07,12,11,41,13.70
2006,07,12,11,42,13.70
2006,07,12,11,43,13.70
2006,07,12,11,44,13.80
2006,07,12,11,45,13.80
2006,07,12,11,46,13.80
2006,07,12,11,47,13.80
2006,07,12,11,48,13.80
2006,07,12,11,49,13.70
2006,07,12,11,50,13.80
2006,07,12,11,51,13.80
2006,07,12,11,52,13.80
2006,07,12,11,53,13.80
2006,07,12,11,54,13.80
2006,07,12,11,55,13.80
2006,07,12,11,56,13.80
2006,07,12,11,57,13.80
2006,07,12,11,58,13.70
2006,07,12,11,59,13.70
2006,07,12,12,00,13.70
2006,07,12,12,01,13.70
2006,07,12,12,02,13.70
2006,07,12,12,03,13.80
2006,07,12,12,04,13.80
2006,07,12,12,05,13.80
2006,07,12,12,06,13.80
2006,07,12,12,07,13.80
2006,07,12,12,08,13.80
2006,07,12,12,09,13.80
2006,07,12,12,10,13.80
2006,07,12,12,11,13.80
2006,07,12,12,12,13.80
2006,07,12,12,13,13.80
2006,07,12,12,14,13.90
2006,07,12,12,15,13.80
2006,07,12,12,16,13.90
2006,07,12,12,17,13.90
2006,07,12,12,18,13.90
2006,07,12,12,19,14.00
2006,07,12,12,20,14.00
2006,07,12,12,21,13.90
2006,07,12,12,22,13.90
2006,07,12,12,23,13.90
2006,07,12,12,24,13.90
2006,07,12,12,25,13.90
2006,07,12,12,26,13.90
2006,07,12,12,27,14.00
2006,07,12,12,28,13.90
2006,07,12,12,29,13.90
2006,07,12,12,30,13.90
2006,07,12,12,31,13.90
2006,07,12,12,32,13.90
2006,07,12,12,33,14.00
2006,07,12,12,34,14.00
2006,07,12,12,35,14.10
2006,07,12,12,36,14.20
2006,07,12,12,37,14.20
2006,07,12,12,38,14.20
2006,07,12,12,39,14.20
2006,07,12,12,40,14.20
2006,07,12,12,41,14.20
2006,07,12,12,42,14.30
2006,07,12,12,43,14.30
2006,07,12,12,44,14.30
2006,07,12,12,45,14.30
2006,07,12,12,46,14.30
2006,07,12,12,47,14.30
2006,07,12,12,48,14.20
2006,07,12,12,49,14.20
2006,07,12,12,50,14.20
2006,07,12,12,51,14.20
2006,07,12,12,52,14.20
2006,07,12,12,53,14.30
2006,07,12,12,54,14.30
2006,07,12,12,55,14.40
2006,07,12,12,56,14.40
2006,07,12,12,57,14.40
2006,07,12,12,58,14.40
2006,07,12,12,59,14.40
2006,07,12,13,00,14.50
2006,07,12,13,01,14.50
2006,07,12,13,02,14.50
2006,07,12,13,03,14.60
2006,07,12,13,04,14.60
2006,07,12,13,05,14.60
2006,07,12,13,06,14.70
2006,07,12,13,07,14.80
2006,07,12,13,08,14.90
2006,07,12,13,09,14.90
2006,07,12,13,10,14.80
2006,07,12,13,11,14.90
2006,07,12,13,12,15.00
2006,07,12,13,13,15.00
2006,07,12,13,14,14.90
2006,07,12,13,15,14.90
2006,07,12,13,16,15.00
2006,07,12,13,17,15.00
2006,07,12,13,18,15.00
2006,07,12,13,19,15.10
2006,07,12,13,20,15.00
2006,07,12,13,21,15.00
2006,07,12,13,22,15.10
2006,07,12,13,23,15.10
2006,07,12,13,24,15.00
2006,07,12,13,25,15.00
2006,07,12,13,26,15.00
2006,07,12,13,27,15.10
2006,07,12,13,28,15.10
2006,07,12,13,29,15.10
2006,07,12,13,30,15.10
2006,07,12,13,31,15.00
2006,07,12,13,32,14.90
2006,07,12,13,33,14.90
2006,07,12,13,34,14.90
2006,07,12,13,35,15.00
2006,07,12,13,36,15.00
2006,07,12,13,37,14.90
2006,07,12,13,38,14.80
2006,07,12,13,39,14.70
2006,07,12,13,40,14.70
2006,07,12,13,41,14.70
2006,07,12,13,42,14.80
2006,07,12,13,43,14.80
2006,07,12,13,44,14.80
2006,07,12,13,45,14.80
2006,07,12,13,46,14.80
2006,07,12,13,47,14.80
2006,07,12,13,48,14.90
2006,07,12,13,49,14.90
2006,07,12,13,50,14.90
2006,07,12,13,51,14.90
2006,07,12,13,52,14.90
2006,07,12,13,53,14.90
2006,07,12,13,54,14.90
2006,07,12,13,55,14.90
2006,07,12,13,56,14.90
2006,07,12,13,57,15.00
2006,07,12,13,58,15.00
2006,07,12,13,59,15.10
2006,07,12,14,00,15.10
2006,07,12,14,01,15.20
2006,07,12,14,02,15.20
2006,07,12,14,03,15.30
2006,07,12,14,04,15.30
2006,07,12,14,05,15.30
2006,07,12,14,06,15.30
2006,07,12,14,07,15.30
2006,07,12,14,08,15.30
2006,07,12,14,09,15.40
2006,07,12,14,10,15.40
2006,07,12,14,11,15.50
2006,07,12,14,12,15.50
2006,07,12,14,13,15.50
2006,07,12,14,14,15.60
2006,07,12,14,15,15.60
2006,07,12,14,16,15.50
2006,07,12,14,17,15.50
2006,07,12,14,18,15.50
2006,07,12,14,19,15.50
2006,07,12,14,20,15.50
2006,07,12,14,21,15.70
2006,07,12,14,22,15.70
2006,07,12,14,23,15.70
2006,07,12,14,24,15.70
2006,07,12,14,25,15.80
2006,07,12,14,26,15.80
2006,07,12,14,27,15.90
2006,07,12,14,28,16.00
2006,07,12,14,29,16.10
2006,07,12,14,30,16.10
2006,07,12,14,31,16.10
2006,07,12,14,32,16.10
2006,07,12,14,33,16.10
2006,07,12,14,34,16.10
2006,07,12,14,35,16.10
2006,07,12,14,36,16.20
2006,07,12,14,37,16.20
2006,07,12,14,38,16.30
2006,07,12,14,39,16.30
2006,07,12,14,40,16.30
2006,07,12,14,41,16.30
2006,07,12,14,42,16.30
2006,07,12,14,43,16.20
2006,07,12,14,44,16.20
2006,07,12,14,45,16.20
2006,07,12,14,46,16.20
2006,07,12,14,47,16.20
2006,07,12,14,48,16.10
2006,07,12,14,49,16.20
2006,07,12,14,50,16.20
2006,07,12,14,51,16.20
2006,07,12,14,52,16.20
2006,07,12,14,53,16.10
2006,07,12,14,54,16.10
2006,07,12,14,55,16.10
2006,07,12,14,56,16.10
2006,07,12,14,57,16.10
2006,07,12,14,58,16.10
2006,07,12,14,59,16.10
2006,07,12,15,00,16.10
2006,07,12,15,01,16.00
2006,07,12,15,02,15.90
2006,07,12,15,03,15.80
2006,07,12,15,04,15.80
2006,07,12,15,05,15.80
2006,07,12,15,06,15.80
2006,07,12,15,07,15.70
2006,07,12,15,08,15.70
2006,07,12,15,09,15.70
2006,07,12,15,10,15.70
2006,07,12,15,11,15.70
2006,07,12,15,12,15.70
2006,07,12,15,13,15.60
2006,07,12,15,14,15.60
2006,07,12,15,15,15.60
2006,07,12,15,16,15.60
2006,07,12,15,17,15.60
2006,07,12,15,18,15.50
2006,07,12,15,19,15.50
2006,07,12,15,20,15.60
2006,07,12,15,21,15.60
2006,07,12,15,22,15.60
2006,07,12,15,23,15.60
2006,07,12,15,24,15.50
2006,07,12,15,25,15.50
2006,07,12,15,26,15.50
2006,07,12,15,27,15.40
2006,07,12,15,28,15.30
2006,07,12,15,29,15.30
2006,07,12,15,30,15.30
2006,07,12,15,31,15.30
2006,07,12,15,32,15.30
2006,07,12,15,33,15.40
2006,07,12,15,34,15.50
2006,07,12,15,35,15.50
2006,07,12,15,36,15.40
2006,07,12,15,37,15.30
2006,07,12,15,38,15.30
2006,07,12,15,39,15.20
2006,07,12,15,40,15.10
2006,07,12,15,41,15.10
2006,07,12,15,42,15.10
2006,07,12,15,43,15.30
2006,07,12,15,44,15.30
2006,07,12,15,45,15.20
2006,07,12,15,46,15.20
2006,07,12,15,47,15.20
2006,07,12,15,48,15.20
2006,07,12,15,49,15.20
2006,07,12,15,50,15.20
2006,07,12,15,51,15.10
2006,07,12,15,52,15.00
2006,07,12,15,53,15.00
2006,07,12,15,54,15.00
2006,07,12,15,55,15.00
2006,07,12,15,56,15.10
2006,07,12,15,57,15.20
2006,07,12,15,58,15.30
2006,07,12,15,59,15.30
2006,07,12,16,00,15.30
2006,07,12,16,01,15.30
2006,07,12,16,02,15.20
2006,07,12,16,03,15.20
2006,07,12,16,04,15.20
2006,07,12,16,05,15.20
2006,07,12,16,06,15.30
2006,07,12,16,07,15.30
2006,07,12,16,08,15.40
2006,07,12,16,09,15.40
2006,07,12,16,10,15.30
2006,07,12,16,11,15.20
2006,07,12,16,12,15.20
2006,07,12,16,13,15.20
2006,07,12,16,14,15.20
2006,07,12,16,15,15.20
2006,07,12,16,16,15.10
2006,07,12,16,17,15.20
2006,07,12,16,18,15.10
2006,07,12,16,19,15.10
2006,07,12,16,20,15.10
2006,07,12,16,21,14.90
2006,07,12,16,22,14.90
2006,07,12,16,23,14.90
2006,07,12,16,24,15.00
2006,07,12,16,25,15.10
2006,07,12,16,26,15.20
2006,07,12,16,27,15.30
2006,07,12,16,28,15.30
2006,07,12,16,29,15.50
2006,07,12,16,30,15.50
2006,07,12,16,31,15.70
2006,07,12,16,32,15.80
2006,07,12,16,33,15.80
2006,07,12,16,34,15.80
2006,07,12,16,35,15.80
2006,07,12,16,36,15.80
2006,07,12,16,37,15.80
2006,07,12,16,38,15.80
2006,07,12,16,39,16.00
2006,07,12,16,40,16.10
2006,07,12,16,41,16.10
2006,07,12,16,42,16.10
2006,07,12,16,43,16.10
2006,07,12,16,44,16.10
2006,07,12,16,45,16.20
2006,07,12,16,46,16.30
2006,07,12,16,47,16.40
2006,07,12,16,48,16.40
2006,07,12,16,49,16.40
2006,07,12,16,50,16.40
2006,07,12,16,51,16.40
2006,07,12,16,52,16.40
2006,07,12,16,53,16.40
2006,07,12,16,54,16.50
2006,07,12,16,55,16.60
2006,07,12,16,56,16.70
2006,07,12,16,57,16.70
2006,07,12,16,58,16.60
2006,07,12,16,59,16.60
2006,07,12,17,00,16.70
2006,07,12,17,01,16.70
2006,07,12,17,02,16.60
2006,07,12,17,03,16.60
2006,07,12,17,04,16.60
2006,07,12,17,05,16.60
2006,07,12,17,06,16.70
2006,07,12,17,07,16.70
2006,07,12,17,08,16.70
2006,07,12,17,09,16.70
2006,07,12,17,10,16.70
2006,07,12,17,11,16.70
2006,07,12,17,12,16.70
2006,07,12,17,13,17.00
2006,07,12,17,14,17.00
2006,07,12,17,15,17.00
2006,07,12,17,16,17.00
2006,07,12,17,17,17.00
2006,07,12,17,18,17.00
2006,07,12,17,19,17.00